Flag for U.S.A. Weather past 2 weeks in Waterbury, Connecticut, U.S.A.

Now
55 °F

Mostly cloudy.


Feels Like: 52 °F
Forecast: 54 / 65 °F
Wind: 12 mph from Northeast

Location: Oxford

Current Time: Oct 2, 2014 at 2:51:31 AM

Latest Report: Oct 2, 2014 at 2:15 AM


Visibility: 10 mi

Pressure: 30.11 "Hg

Humidity: 88%

Dew point: 52 °F

Location of WaterburyLocation

Historic Weather in Waterbury — Graph

°F

Waterbury temperature yesterday

Maximum temperature yesterday: 59 °F (at 12:50 PM)
Minimum temperature yesterday: 57 °F (at 12:15 AM)
Average temperature yesterday: 57 °F

Past Weeks' High & Low Weather Summary

 TemperatureHumidityPressure
High81 °F (Sep 27, 3:45 PM)100% (Sep 27, 6:52 AM)30.60 "Hg (Sep 27, 6:52 AM)
Low36 °F (Sep 27, 6:52 AM)38% (Sep 18, 3:52 PM)29.63 "Hg (Sep 21, 9:35 PM)
Average58 °F76%30.14 "Hg
* Reported Sep 17 1:15 AM — Oct 2 1:35 AM, Waterbury, Weather by CustomWeather, © 2014

Note: Actual official high and low records may vary slightly from our data, if they occured in-between our weather recording intervals... More about our weather records

Advertising

Waterbury weather history for previous 24 hours

 ConditionsComfort  
Time TempWeatherWind HumidityBarometerVisibility
1:35 AM
Oct 2
55 °FMostly cloudy.12 mph88%30.11 "Hg9 mi
1:15 AM55 °FMostly cloudy.10 mph88%30.10 "Hg10 mi
12:55 AM55 °FOvercast.10 mph88%30.10 "Hg10 mi
12:35 AM55 °FOvercast.9 mph88%30.11 "Hg10 mi
12:15 AM55 °FOvercast.9 mph88%30.11 "Hg10 mi
11:55 PM
Oct 1
57 °FMostly cloudy.10 mph82%30.11 "Hg10 mi
11:35 PM57 °FMostly cloudy.10 mph82%30.11 "Hg10 mi
11:15 PM57 °FMostly cloudy.12 mph82%30.10 "Hg10 mi
10:55 PM57 °FMostly cloudy.10 mph82%30.11 "Hg10 mi
10:35 PM57 °FLow clouds.10 mph82%30.11 "Hg10 mi
10:15 PM57 °FLow clouds.14 mph82%30.11 "Hg10 mi
9:55 PM57 °FLow clouds.8 mph82%30.10 "Hg10 mi
9:35 PM57 °FMostly cloudy.12 mph82%30.10 "Hg10 mi
9:15 PM57 °FMostly cloudy.10 mph82%30.10 "Hg10 mi
7:52 PM57 °FFog.9 mph82%30.09 "Hg4 mi
6:52 PM57 °FLow clouds.10 mph82%30.09 "Hg7 mi
5:52 PM59 °FLow clouds.8 mph82%30.07 "Hg7 mi
4:52 PM59 °FLow clouds.12 mph82%30.07 "Hg7 mi
3:45 PM59 °FDrizzle. Fog.12 mph82%30.06 "Hg5 mi
2:55 PM59 °FLight rain. Fog.9 mph82%30.07 "Hg4 mi
1:45 PM59 °FLight rain. Fog.12 mph82%30.06 "Hg3 mi
12:50 PM59 °FLight rain. Fog.12 mph82%30.07 "Hg5 mi
11:50 AM57 °FLight rain. Fog.9 mph88%30.08 "Hg4 mi
10:50 AM57 °FLight rain. Fog.9 mph82%30.08 "Hg4 mi
9:55 AM57 °FLight rain. Fog.N/A82%30.07 "Hg5 mi
8:50 AM57 °FLight rain. Fog.12 mph82%30.06 "Hg4 mi
7:50 AM57 °FLight rain. Fog.7 mph82%30.05 "Hg5 mi
6:50 AM57 °FLight rain. Fog.8 mph82%30.04 "Hg4 mi
5:50 AM57 °FRain. Fog.8 mph82%30.03 "Hg3 mi
5:35 AM57 °FOvercast.8 mph82%30.02 "Hg10 mi
5:15 AM57 °FOvercast.8 mph82%30.02 "Hg8 mi
4:55 AM57 °FMostly cloudy.9 mph82%30.02 "Hg5 mi
4:35 AM57 °FMostly cloudy.8 mph82%30.02 "Hg5 mi
4:15 AM57 °FOvercast.10 mph82%30.02 "Hg9 mi
3:55 AM57 °FOvercast.12 mph82%30.02 "Hg10 mi
3:35 AM57 °FMostly cloudy.13 mph82%30.02 "Hg10 mi
3:15 AM57 °FLow clouds.9 mph82%30.02 "Hg10 mi
2:55 AM57 °FMostly cloudy.8 mph82%30.02 "Hg10 mi
2:35 AM57 °FMostly cloudy.7 mph82%30.02 "Hg10 mi
Weather by CustomWeather, © 2014

See weather overviewHow to use our weather pages